TimePDT,TemperatureF,Dew PointF,Humidity,Sea Level PressureIn,VisibilityMPH,Wind Direction,Wind SpeedMPH,Gust SpeedMPH,PrecipitationIn,Events,Conditions,WindDirDegrees,DateUTC
12:58 AM,80.2,32.2,17,29.60,10.0,South,15.0,-,N/A,,Clear,190,2013-09-25 07:58:00
1:58 AM,78.6,33.4,19,29.58,10.0,South,13.8,-,N/A,,Clear,190,2013-09-25 08:58:00
2:58 AM,78.6,34.9,21,29.54,10.0,South,23.0,-,N/A,,Clear,190,2013-09-25 09:58:00
3:58 AM,77.4,34.9,21,29.53,10.0,South,27.6,-,N/A,,Clear,190,2013-09-25 10:58:00
4:58 AM,77.0,37.0,24,29.51,10.0,SSW,33.4,40.3,N/A,,Clear,200,2013-09-25 11:58:00
5:58 AM,76.3,37.4,25,29.53,10.0,SSW,29.9,35.7,N/A,,Clear,200,2013-09-25 12:58:00
6:58 AM,76.1,34.0,22,29.52,10.0,SSW,29.9,-,N/A,,Clear,200,2013-09-25 13:58:00
7:58 AM,77.4,36.1,23,29.50,9.0,SSW,39.1,48.3,N/A,,Clear,200,2013-09-25 14:58:00
8:58 AM,79.2,35.4,21,29.52,10.0,South,24.2,44.9,N/A,,Clear,190,2013-09-25 15:58:00
9:58 AM,81.5,33.8,18,29.52,10.0,South,27.6,41.4,N/A,,Clear,190,2013-09-25 16:58:00
10:58 AM,83.1,31.5,15,29.50,10.0,South,27.6,39.1,N/A,,Clear,180,2013-09-25 17:58:00
11:58 AM,85.1,30.0,14,29.48,10.0,SSW,31.1,38.0,N/A,,Clear,200,2013-09-25 18:58:00
12:58 PM,86.5,26.6,11,29.46,10.0,SSW,26.5,39.1,N/A,,Clear,210,2013-09-25 19:58:00
1:58 PM,87.6,25.2,10,29.41,10.0,SSW,38.0,48.3,N/A,,Clear,210,2013-09-25 20:58:00
2:58 PM,87.4,22.5,9,29.40,10.0,SSW,36.8,41.4,N/A,,Clear,210,2013-09-25 21:58:00
3:58 PM,87.8,19.9,8,29.39,10.0,SSW,32.2,43.7,N/A,,Clear,200,2013-09-25 22:58:00
4:58 PM,86.7,17.2,8,29.38,10.0,SSW,27.6,38.0,N/A,,Clear,210,2013-09-25 23:58:00
5:58 PM,84.7,17.8,8,29.37,10.0,SW,27.6,32.2,N/A,,Clear,220,2013-09-26 00:58:00
6:58 PM,82.0,22.6,11,29.38,10.0,SW,19.6,28.8,N/A,,Clear,220,2013-09-26 01:58:00
7:58 PM,80.4,29.3,16,29.39,10.0,SSW,24.2,34.5,N/A,,Clear,210,2013-09-26 02:58:00
8:58 PM,78.4,32.9,19,29.43,10.0,SSW,18.4,-,N/A,,Clear,210,2013-09-26 03:58:00
9:58 PM,75.7,37.0,25,29.44,10.0,SSW,28.8,-,N/A,,Clear,210,2013-09-26 04:58:00
10:58 PM,73.2,38.7,29,29.46,10.0,SSW,24.2,31.1,N/A,,Clear,200,2013-09-26 05:58:00
11:58 PM,71.6,38.1,30,29.48,10.0,South,21.9,29.9,N/A,,Clear,190,2013-09-26 06:58:00